| time (UTC) | temp F | wind direction | speed MPH | gust MPH | rain 1hr in | rain 24hr in | rain mn in | humidity % | barometer mb |
| 20260505200813 | 60 | 242 | 3.0 | 11.0 | 0.09 | 0.34 | 0.34 | 89 | 1005.7 |
| 20260505200312 | 60 | 206 | 4.0 | 13.0 | 0.09 | 0.34 | 0.34 | 88 | 1005.6 |
| 20260505195812 | 60 | 288 | 4.0 | 14.0 | 0.08 | 0.33 | 0.33 | 88 | 1005.9 |
| 20260505195312 | 60 | 239 | 4.0 | 14.0 | 0.07 | 0.32 | 0.32 | 88 | 1006.1 |
| 20260505194812 | 61 | 257 | 2.0 | 12.0 | 0.06 | 0.31 | 0.31 | 87 | 1006.1 |
| 20260505194312 | 61 | 187 | 3.0 | 14.0 | 0.03 | 0.28 | 0.28 | 86 | 1006.1 |
| 20260505193811 | 62 | 232 | 5.0 | 14.0 | 0.01 | 0.26 | 0.26 | 83 | 1006.2 |
| 20260505193311 | 62 | 218 | 4.0 | 10.0 | 0.00 | 0.25 | 0.25 | 81 | 1006.1 |
| 20260505192811 | 63 | 198 | 4.0 | 10.0 | 0.00 | 0.25 | 0.25 | 80 | 1006.0 |
| 20260505192311 | 63 | 315 | 4.0 | 10.0 | 0.00 | 0.25 | 0.25 | 79 | 1006.1 |
| 20260505191811 | 63 | 194 | 4.0 | 17.0 | 0.00 | 0.25 | 0.25 | 78 | 1006.1 |
| 20260505191311 | 64 | 173 | 7.0 | 17.0 | 0.00 | 0.25 | 0.25 | 76 | 1006.2 |
| 20260505190310 | 64 | 190 | 9.0 | 17.0 | 0.00 | 0.25 | 0.25 | 75 | 1006.2 |
| 20260505185810 | 64 | 171 | 6.0 | 15.0 | 0.00 | 0.25 | 0.25 | 75 | 1006.3 |
| 20260505185310 | 65 | 188 | 8.0 | 14.0 | 0.00 | 0.25 | 0.25 | 76 | 1006.2 |
| 20260505184811 | 64 | 247 | 3.0 | 14.0 | 0.00 | 0.25 | 0.25 | 75 | 1006.2 |
| 20260505184310 | 65 | 217 | 12.0 | 16.0 | 0.00 | 0.25 | 0.25 | 75 | 1006.4 |
| 20260505183809 | 65 | 193 | 9.0 | 17.0 | 0.00 | 0.25 | 0.25 | 75 | 1006.5 |
| 20260505183310 | 65 | 275 | 4.0 | 17.0 | 0.00 | 0.25 | 0.25 | 74 | 1006.4 |
| 20260505182809 | 65 | 218 | 4.0 | 18.0 | 0.00 | 0.25 | 0.25 | 74 | 1006.3 |
| 20260505182309 | 65 | 248 | 3.0 | 18.0 | 0.00 | 0.25 | 0.25 | 73 | 1006.4 |
| 20260505181309 | 65 | 208 | 12.0 | 18.0 | 0.00 | 0.25 | 0.25 | 74 | 1006.6 |
| 20260505180809 | 65 | 196 | 7.0 | 21.0 | 0.00 | 0.25 | 0.25 | 74 | 1006.5 |
| 20260505180309 | 65 | 236 | 6.0 | 21.0 | 0.00 | 0.25 | 0.25 | 75 | 1006.4 |
| 20260505175808 | 65 | 216 | 10.0 | 16.0 | 0.00 | 0.25 | 0.25 | 75 | 1006.5 |
| 20260505175309 | 64 | 165 | 10.0 | 17.0 | 0.00 | 0.25 | 0.25 | 77 | 1006.4 |
| 20260505174809 | 64 | 217 | 12.0 | 17.0 | 0.00 | 0.25 | 0.25 | 78 | 1006.4 |
| 20260505174308 | 64 | 265 | 6.0 | 19.0 | 0.00 | 0.25 | 0.25 | 77 | 1006.3 |
| 20260505173308 | 65 | 192 | 17.0 | 19.0 | 0.00 | 0.25 | 0.25 | 74 | 1006.5 |
| 20260505172808 | 66 | 212 | 10.0 | 14.0 | 0.00 | 0.25 | 0.25 | 74 | 1006.5 |
| 20260505172307 | 66 | 215 | 5.0 | 13.0 | 0.00 | 0.25 | 0.25 | 74 | 1006.5 |
| 20260505171807 | 66 | 246 | 5.0 | 13.0 | 0.00 | 0.25 | 0.25 | 73 | 1006.6 |
| 20260505171307 | 67 | 257 | 5.0 | 10.0 | 0.00 | 0.25 | 0.25 | 73 | 1006.7 |
| 20260505170807 | 66 | 238 | 4.0 | 11.0 | 0.00 | 0.25 | 0.25 | 73 | 1006.6 |
| 20260505170307 | 66 | 266 | 1.0 | 11.0 | 0.00 | 0.25 | 0.25 | 74 | 1006.7 |
| 20260505165807 | 66 | 213 | 4.0 | 12.0 | 0.00 | 0.25 | 0.25 | 74 | 1006.6 |
| 20260505165306 | 66 | 279 | 2.0 | 13.0 | 0.00 | 0.25 | 0.25 | 74 | 1006.8 |
| 20260505164806 | 66 | 273 | 7.0 | 14.0 | 0.00 | 0.25 | 0.25 | 73 | 1006.8 |
| 20260505163806 | 66 | 184 | 5.0 | 15.0 | 0.00 | 0.25 | 0.25 | 72 | 1007.0 |
| 20260505163306 | 66 | 167 | 12.0 | 13.0 | 0.00 | 0.25 | 0.25 | 73 | 1007.0 |
| 20260505162806 | 66 | 226 | 4.0 | 16.0 | 0.00 | 0.25 | 0.25 | 72 | 1007.1 |
| 20260505162307 | 66 | 302 | 5.0 | 16.0 | 0.00 | 0.25 | 0.25 | 73 | 1007.0 |
| 20260505161305 | 66 | 205 | 10.0 | 18.0 | 0.00 | 0.25 | 0.25 | 72 | 1007.0 |
| 20260505160305 | 66 | 217 | 13.0 | 15.0 | 0.00 | 0.25 | 0.25 | 72 | 1007.0 |
| 20260505153304 | 66 | 234 | 9.0 | 17.0 | 0.00 | 0.25 | 0.25 | 71 | 1007.0 |
| 20260505152305 | 66 | 272 | 5.0 | 17.0 | 0.00 | 0.25 | 0.25 | 74 | 1006.9 |
| 20260505151803 | 66 | 288 | 4.0 | 17.0 | 0.00 | 0.25 | 0.25 | 73 | 1006.9 |
| 20260505150803 | 66 | 179 | 12.0 | 16.0 | 0.00 | 0.25 | 0.25 | 71 | 1006.8 |
| 20260505150303 | 66 | 198 | 10.0 | 14.0 | 0.00 | 0.25 | 0.25 | 72 | 1006.7 |
| 20260505124829 | 59 | 204 | 12.0 | 14.0 | 0.00 | 0.25 | 0.25 | 84 | 1005.5 |
| 20260505124329 | 59 | 213 | 9.0 | 14.0 | 0.00 | 0.25 | 0.25 | 85 | 1005.4 |
| 20260505123329 | 58 | 215 | 10.0 | 13.0 | 0.00 | 0.25 | 0.25 | 85 | 1005.6 |
| 20260505122328 | 57 | 195 | 10.0 | 12.0 | 0.00 | 0.25 | 0.25 | 86 | 1005.5 |
| 20260505121828 | 57 | 198 | 4.0 | 13.0 | 0.00 | 0.25 | 0.25 | 86 | 1005.5 |
| 20260505121328 | 57 | 189 | 7.0 | 13.0 | 0.00 | 0.25 | 0.25 | 86 | 1005.5 |
| 20260505120828 | 57 | 216 | 7.0 | 13.0 | 0.00 | 0.25 | 0.25 | 86 | 1005.6 |
| 20260505120328 | 57 | 194 | 9.0 | 12.0 | 0.00 | 0.25 | 0.25 | 86 | 1005.5 |
| 20260505115828 | 57 | 281 | 3.0 | 10.0 | 0.00 | 0.25 | 0.25 | 87 | 1005.6 |
| 20260505115328 | 57 | 219 | 5.0 | 10.0 | 0.00 | 0.25 | 0.25 | 87 | 1005.6 |
| 20260505114827 | 57 | 221 | 5.0 | 9.0 | 0.00 | 0.25 | 0.25 | 87 | 1005.4 |
| 20260505114327 | 56 | 271 | 2.0 | 10.0 | 0.00 | 0.25 | 0.25 | 87 | 1005.5 |
| 20260505113827 | 56 | 267 | 3.0 | 10.0 | 0.00 | 0.25 | 0.25 | 87 | 1005.3 |
| 20260505113327 | 56 | 254 | 3.0 | 13.0 | 0.00 | 0.25 | 0.25 | 87 | 1005.4 |
| 20260505112827 | 56 | 266 | 4.0 | 13.0 | 0.00 | 0.25 | 0.25 | 87 | 1005.3 |
| 20260505112327 | 56 | 288 | 3.0 | 11.0 | 0.01 | 0.25 | 0.25 | 87 | 1005.4 |
| 20260505111826 | 56 | 259 | 1.0 | 10.0 | 0.01 | 0.25 | 0.25 | 87 | 1005.2 |
| 20260505111326 | 56 | 181 | 4.0 | 11.0 | 0.01 | 0.25 | 0.25 | 87 | 1004.9 |
| 20260505110826 | 56 | 167 | 2.0 | 11.0 | 0.01 | 0.25 | 0.25 | 87 | 1004.3 |
| 20260505110326 | 56 | 275 | 4.0 | 11.0 | 0.01 | 0.25 | 0.25 | 87 | 1004.0 |
| 20260505101825 | 56 | 157 | 11.0 | 14.0 | 0.03 | 0.24 | 0.24 | 88 | 1003.9 |
| 20260505101324 | 56 | 191 | 7.0 | 17.0 | 0.03 | 0.24 | 0.24 | 87 | 1004.2 |
| 20260505100324 | 56 | 229 | 7.0 | 18.0 | 0.05 | 0.24 | 0.24 | 88 | 1004.0 |
| 20260505095824 | 56 | 171 | 8.0 | 17.0 | 0.07 | 0.24 | 0.24 | 89 | 1003.9 |
| 20260505095324 | 56 | 193 | 4.0 | 16.0 | 0.09 | 0.24 | 0.24 | 89 | 1003.8 |
| 20260505094824 | 56 | 224 | 5.0 | 12.0 | 0.12 | 0.24 | 0.24 | 89 | 1004.3 |
| 20260505093823 | 56 | 163 | 4.0 | 16.0 | 0.16 | 0.23 | 0.23 | 90 | 1004.6 |
| 20260505093323 | 56 | 196 | 10.0 | 12.0 | 0.17 | 0.23 | 0.23 | 91 | 1005.6 |
| 20260505092823 | 56 | 148 | 4.0 | 8.0 | 0.18 | 0.22 | 0.22 | 91 | 1006.0 |
| 20260505091322 | 56 | 191 | 4.0 | 10.0 | 0.21 | 0.21 | 0.21 | 91 | 1006.1 |
| 20260505090822 | 56 | 243 | 3.0 | 10.0 | 0.19 | 0.19 | 0.19 | 91 | 1006.2 |
| 20260505090322 | 56 | 235 | 0.0 | 3.0 | 0.19 | 0.19 | 0.19 | 91 | 1006.0 |
| 20260505085822 | 56 | 277 | 1.0 | 2.0 | 0.17 | 0.17 | 0.17 | 91 | 1006.2 |
| 20260505085322 | 56 | 277 | 0.0 | 3.0 | 0.15 | 0.15 | 0.15 | 91 | 1006.2 |
| 20260505084821 | 56 | 290 | 0.0 | 3.0 | 0.12 | 0.12 | 0.12 | 91 | 1006.0 |
| 20260505084321 | 56 | 355 | 0.0 | 2.0 | 0.08 | 0.08 | 0.08 | 90 | 1005.9 |
| 20260505083822 | 56 | 344 | 1.0 | 2.0 | 0.07 | 0.07 | 0.07 | 89 | 1006.0 |
| 20260505083321 | 56 | 184 | 0.0 | 2.0 | 0.06 | 0.06 | 0.06 | 89 | 1005.7 |
| 20260505082821 | 57 | 217 | 0.0 | 2.0 | 0.04 | 0.04 | 0.04 | 88 | 1005.8 |
| 20260505082321 | 57 | 217 | 0.0 | 1.0 | 0.01 | 0.01 | 0.01 | 87 | 1006.0 |
| 20260505081821 | 58 | 217 | 0.0 | 6.0 | 0.00 | 0.00 | 0.00 | 85 | 1005.7 |
| 20260505081321 | 58 | 238 | 0.0 | 6.0 | 0.00 | 0.00 | 0.00 | 83 | 1005.5 |
| 20260505080821 | 58 | 302 | 2.0 | 5.0 | 0.00 | 0.00 | 0.00 | 83 | 1005.4 |
| 20260505075821 | 58 | 247 | 0.0 | 6.0 | 0.00 | 0.00 | 0.00 | 81 | 1005.5 |
| 20260505075320 | 59 | 296 | 1.0 | 10.0 | 0.00 | 0.00 | 0.00 | 79 | 1005.3 |
| 20260505074819 | 60 | 298 | 1.0 | 10.0 | 0.00 | 0.00 | 0.00 | 78 | 1005.3 |
| 20260505074320 | 60 | 333 | 7.0 | 11.0 | 0.00 | 0.00 | 0.00 | 76 | 1005.4 |
| 20260505073820 | 61 | 224 | 7.0 | 13.0 | 0.00 | 0.00 | 0.00 | 75 | 1005.2 |
| 20260505073319 | 61 | 192 | 3.0 | 15.0 | 0.00 | 0.00 | 0.00 | 74 | 1005.3 |
| 20260505072320 | 62 | 261 | 1.0 | 18.0 | 0.00 | 0.00 | 0.00 | 72 | 1005.4 |
| 20260505071819 | 63 | 320 | 11.0 | 18.0 | 0.00 | 0.00 | 0.00 | 70 | 1005.3 |
| 20260505071318 | 63 | 291 | 13.0 | 18.0 | 0.00 | 0.00 | 0.00 | 69 | 1005.2 |
| 20260505070819 | 64 | 315 | 5.0 | 18.0 | 0.00 | 0.00 | 0.00 | 69 | 1005.1 |
| 20260505070318 | 64 | 304 | 9.0 | 13.0 | 0.00 | 0.00 | 0.00 | 67 | 1004.9 |
| 20260505065818 | 65 | 302 | 9.0 | 13.0 | 0.00 | 0.00 | 0.00 | 65 | 1004.7 |
| 20260505065318 | 65 | 246 | 7.0 | 11.0 | 0.00 | 0.00 | 0.00 | 63 | 1004.7 |
| 20260505064818 | 66 | 260 | 4.0 | 11.0 | 0.00 | 0.00 | 0.00 | 61 | 1004.5 |
| 20260505064318 | 65 | 209 | 4.0 | 11.0 | 0.00 | 0.00 | 0.00 | 62 | 1004.5 |
| 20260505063817 | 65 | 195 | 3.0 | 13.0 | 0.00 | 0.00 | 0.00 | 62 | 1004.2 |
| 20260505063317 | 65 | 209 | 2.0 | 13.0 | 0.00 | 0.00 | 0.00 | 62 | 1004.2 |
| 20260505062817 | 65 | 198 | 5.0 | 15.0 | 0.00 | 0.00 | 0.00 | 62 | 1004.0 |
| 20260505062317 | 66 | 197 | 8.0 | 18.0 | 0.00 | 0.00 | 0.00 | 62 | 1004.0 |
| 20260505061817 | 66 | 231 | 14.0 | 19.0 | 0.00 | 0.00 | 0.00 | 62 | 1004.0 |
| 20260505061317 | 65 | 218 | 6.0 | 19.0 | 0.00 | 0.00 | 0.00 | 62 | 1003.9 |
| 20260505060817 | 65 | 235 | 7.0 | 19.0 | 0.00 | 0.00 | 0.00 | 62 | 1003.9 |
| 20260505060316 | 65 | 194 | 13.0 | 19.0 | 0.00 | 0.00 | 0.00 | 62 | 1003.7 |
| 20260505055816 | 65 | 233 | 6.0 | 17.0 | 0.00 | 0.00 | 0.00 | 62 | 1003.7 |
| 20260505055316 | 65 | 183 | 10.0 | 19.0 | 0.00 | 0.00 | 0.00 | 62 | 1003.5 |
| 20260505054816 | 65 | 265 | 15.0 | 19.0 | 0.00 | 0.00 | 0.00 | 62 | 1003.6 |
| 20260505054316 | 65 | 209 | 19.0 | 19.0 | 0.00 | 0.00 | 0.00 | 62 | 1003.4 |
| 20260505053816 | 65 | 214 | 6.0 | 18.0 | 0.00 | 0.00 | 0.00 | 62 | 1003.4 |
| 20260505053316 | 65 | 224 | 9.0 | 18.0 | 0.00 | 0.00 | 0.00 | 62 | 1003.4 |
| 20260505052315 | 65 | 222 | 7.0 | 18.0 | 0.00 | 0.00 | 0.00 | 62 | 1003.2 |
| 20260505051815 | 65 | 199 | 16.0 | 18.0 | 0.00 | 0.00 | 0.00 | 62 | 1003.2 |
| 20260505051315 | 65 | 207 | 11.0 | 18.0 | 0.00 | 0.00 | 0.00 | 63 | 1003.2 |
| 20260505050315 | 65 | 217 | 6.0 | 16.0 | 0.00 | 0.00 | 0.00 | 63 | 1003.2 |
| 20260505035813 | 67 | 182 | 14.0 | 16.0 | 0.00 | 0.00 | 0.00 | 61 | 1003.9 |
| 20260505035313 | 67 | 213 | 11.0 | 16.0 | 0.00 | 0.00 | 0.00 | 61 | 1003.9 |
| 20260505034312 | 67 | 219 | 9.0 | 16.0 | 0.00 | 0.00 | 0.00 | 61 | 1003.9 |
| 20260505032811 | 67 | 200 | 9.0 | 15.0 | 0.00 | 0.00 | 0.00 | 61 | 1004.0 |
| 20260505031811 | 67 | 182 | 5.0 | 15.0 | 0.00 | 0.00 | 0.00 | 61 | 1003.8 |
| 20260505031312 | 67 | 224 | 8.0 | 15.0 | 0.00 | 0.00 | 0.00 | 61 | 1003.9 |
| 20260505030811 | 67 | 213 | 7.0 | 15.0 | 0.00 | 0.00 | 0.00 | 61 | 1003.9 |
| 20260505030311 | 67 | 200 | 9.0 | 15.0 | 0.00 | 0.00 | 0.00 | 61 | 1004.1 |
| 20260505025811 | 67 | 219 | 11.0 | 12.0 | 0.00 | 0.00 | 0.00 | 62 | 1004.0 |
| 20260505025311 | 67 | 201 | 8.0 | 14.0 | 0.00 | 0.00 | 0.00 | 62 | 1003.9 |
| 20260505024810 | 67 | 221 | 4.0 | 14.0 | 0.00 | 0.00 | 0.00 | 61 | 1003.9 |
| 20260505024311 | 67 | 246 | 5.0 | 14.0 | 0.00 | 0.00 | 0.00 | 62 | 1003.9 |
| 20260505023810 | 66 | 221 | 9.0 | 11.0 | 0.00 | 0.00 | 0.00 | 62 | 1003.7 |
| 20260505023311 | 66 | 248 | 6.0 | 11.0 | 0.00 | 0.00 | 0.00 | 62 | 1003.6 |
| 20260505022810 | 66 | 180 | 5.0 | 10.0 | 0.00 | 0.00 | 0.00 | 62 | 1003.6 |
| 20260505022310 | 66 | 189 | 5.0 | 10.0 | 0.00 | 0.00 | 0.00 | 63 | 1003.5 |
| 20260505021810 | 66 | 236 | 4.0 | 6.0 | 0.00 | 0.00 | 0.00 | 63 | 1003.5 |
| 20260505021309 | 65 | 224 | 3.0 | 6.0 | 0.00 | 0.00 | 0.00 | 63 | 1003.4 |
| 20260505020309 | 66 | 200 | 2.0 | 6.0 | 0.00 | 0.00 | 0.00 | 62 | 1003.3 |
| 20260505015809 | 66 | 203 | 3.0 | 5.0 | 0.00 | 0.00 | 0.00 | 61 | 1003.1 |
| 20260505014809 | 66 | 179 | 3.0 | 6.0 | 0.00 | 0.00 | 0.00 | 61 | 1003.2 |
| 20260505014308 | 67 | 181 | 3.0 | 7.0 | 0.00 | 0.00 | 0.00 | 60 | 1003.2 |
| 20260505013808 | 67 | 230 | 3.0 | 10.0 | 0.00 | 0.00 | 0.00 | 60 | 1003.1 |
| 20260505013308 | 67 | 228 | 5.0 | 10.0 | 0.00 | 0.00 | 0.00 | 59 | 1003.1 |
| 20260505012808 | 67 | 204 | 5.0 | 10.0 | 0.00 | 0.00 | 0.00 | 59 | 1003.1 |
| 20260505012308 | 68 | 233 | 5.0 | 10.0 | 0.00 | 0.00 | 0.00 | 59 | 1003.3 |
| 20260505011808 | 68 | 202 | 8.0 | 14.0 | 0.00 | 0.00 | 0.00 | 58 | 1003.1 |
| 20260505011307 | 68 | 202 | 7.0 | 14.0 | 0.00 | 0.00 | 0.00 | 58 | 1003.0 |
| 20260505010807 | 69 | 196 | 5.0 | 13.0 | 0.00 | 0.00 | 0.00 | 58 | 1003.0 |
| 20260505010307 | 69 | 239 | 9.0 | 13.0 | 0.00 | 0.00 | 0.00 | 57 | 1002.9 |
| 20260505005307 | 68 | 211 | 10.0 | 13.0 | 0.00 | 0.00 | 0.00 | 59 | 1002.7 |
| 20260505004807 | 68 | 212 | 11.0 | 12.0 | 0.00 | 0.00 | 0.00 | 59 | 1002.6 |
| 20260505004307 | 68 | 201 | 4.0 | 10.0 | 0.00 | 0.00 | 0.00 | 59 | 1002.7 |
| 20260505003807 | 69 | 198 | 3.0 | 10.0 | 0.00 | 0.00 | 0.00 | 59 | 1002.7 |
| 20260505003306 | 69 | 193 | 5.0 | 10.0 | 0.00 | 0.00 | 0.00 | 58 | 1002.7 |
| 20260505002306 | 69 | 221 | 2.0 | 9.0 | 0.00 | 0.00 | 0.00 | 57 | 1002.6 |
| 20260505001806 | 70 | 161 | 5.0 | 9.0 | 0.00 | 0.00 | 0.00 | 57 | 1002.7 |
| 20260505001306 | 70 | 200 | 3.0 | 12.0 | 0.00 | 0.00 | 0.00 | 57 | 1002.7 |
| 20260505000806 | 70 | 202 | 5.0 | 12.0 | 0.00 | 0.00 | 0.00 | 56 | 1002.7 |
| 20260505000306 | 70 | 203 | 6.0 | 10.0 | 0.00 | 0.00 | 0.00 | 56 | 1002.9 |
| 20260504235805 | 70 | 171 | 2.0 | 12.0 | 0.00 | 0.00 | 0.00 | 57 | 1002.8 |
| 20260504234805 | 70 | 216 | 6.0 | 17.0 | 0.00 | 0.00 | 0.00 | 55 | 1003.0 |
| 20260504234305 | 71 | 224 | 10.0 | 17.0 | 0.00 | 0.00 | 0.00 | 55 | 1003.3 |
| 20260504233805 | 71 | 210 | 5.0 | 16.0 | 0.00 | 0.00 | 0.00 | 55 | 1003.3 |
| 20260504232804 | 72 | 202 | 10.0 | 19.0 | 0.00 | 0.00 | 0.00 | 54 | 1003.3 |
| 20260504231804 | 72 | 217 | 10.0 | 15.0 | 0.00 | 0.00 | 0.00 | 54 | 1003.6 |
| 20260504231304 | 72 | 225 | 10.0 | 15.0 | 0.00 | 0.00 | 0.00 | 53 | 1003.6 |
| 20260504230804 | 72 | 189 | 7.0 | 15.0 | 0.00 | 0.00 | 0.00 | 54 | 1003.6 |
| 20260504230304 | 72 | 232 | 3.0 | 15.0 | 0.00 | 0.00 | 0.00 | 52 | 1003.6 |
| 20260504225304 | 72 | 180 | 6.0 | 17.0 | 0.00 | 0.00 | 0.00 | 53 | 1003.7 |
| 20260504224803 | 72 | 190 | 6.0 | 17.0 | 0.00 | 0.00 | 0.00 | 53 | 1003.6 |
| 20260504224303 | 72 | 188 | 11.0 | 17.0 | 0.00 | 0.00 | 0.00 | 52 | 1003.7 |
| 20260504223803 | 72 | 209 | 3.0 | 15.0 | 0.00 | 0.00 | 0.00 | 54 | 1003.7 |
| 20260504223333 | 72 | 221 | 6.0 | 19.0 | 0.00 | 0.00 | 0.00 | 51 | 1003.8 |
| 20260504222832 | 72 | 186 | 11.0 | 19.0 | 0.00 | 0.00 | 0.00 | 52 | 1003.9 |
| 20260504222333 | 72 | 187 | 11.0 | 19.0 | 0.00 | 0.00 | 0.00 | 53 | 1003.8 |
| 20260504221832 | 71 | 228 | 11.0 | 19.0 | 0.00 | 0.00 | 0.00 | 54 | 1003.6 |
| 20260504221332 | 71 | 205 | 18.0 | 21.0 | 0.00 | 0.00 | 0.00 | 53 | 1003.6 |
| 20260504220832 | 71 | 231 | 10.0 | 21.0 | 0.00 | 0.00 | 0.00 | 53 | 1003.7 |
| 20260504220332 | 71 | 257 | 10.0 | 21.0 | 0.00 | 0.00 | 0.00 | 55 | 1003.8 |
| 20260504215832 | 71 | 219 | 17.0 | 21.0 | 0.00 | 0.00 | 0.00 | 54 | 1003.7 |
| 20260504215332 | 70 | 211 | 10.0 | 23.0 | 0.00 | 0.00 | 0.00 | 55 | 1003.8 |
| 20260504214831 | 70 | 201 | 12.0 | 23.0 | 0.00 | 0.00 | 0.00 | 55 | 1003.9 |
| 20260504214332 | 70 | 200 | 14.0 | 23.0 | 0.00 | 0.00 | 0.00 | 56 | 1003.9 |
| 20260504213831 | 71 | 238 | 7.0 | 24.0 | 0.00 | 0.00 | 0.00 | 54 | 1004.0 |
| 20260504213331 | 71 | 194 | 5.0 | 24.0 | 0.00 | 0.00 | 0.00 | 53 | 1004.2 |
| 20260504212830 | 72 | 196 | 15.0 | 24.0 | 0.00 | 0.00 | 0.00 | 52 | 1004.0 |
| 20260504212331 | 73 | 211 | 7.0 | 23.0 | 0.00 | 0.00 | 0.00 | 46 | 1004.0 |
| 20260504211830 | 73 | 191 | 5.0 | 23.0 | 0.00 | 0.01 | 0.00 | 43 | 1003.9 |
| 20260504211331 | 74 | 208 | 12.0 | 19.0 | 0.00 | 0.01 | 0.00 | 44 | 1003.9 |
| 20260504210830 | 74 | 183 | 5.0 | 16.0 | 0.00 | 0.01 | 0.00 | 45 | 1003.8 |
| 20260504210330 | 73 | 221 | 3.0 | 16.0 | 0.00 | 0.01 | 0.00 | 45 | 1003.6 |
| 20260504205830 | 73 | 248 | 2.0 | 15.0 | 0.00 | 0.01 | 0.00 | 47 | 1003.7 |
| 20260504205330 | 73 | 238 | 4.0 | 16.0 | 0.00 | 0.01 | 0.00 | 48 | 1003.9 |
| 20260504204329 | 73 | 183 | 14.0 | 19.0 | 0.00 | 0.01 | 0.00 | 51 | 1004.2 |
| 20260504203829 | 72 | 231 | 6.0 | 19.0 | 0.00 | 0.01 | 0.00 | 52 | 1004.2 |
| 20260504203329 | 72 | 202 | 6.0 | 25.0 | 0.00 | 0.01 | 0.00 | 54 | 1004.4 |
| 20260504202829 | 71 | 259 | 15.0 | 25.0 | 0.00 | 0.01 | 0.00 | 53 | 1004.3 |
| 20260504202328 | 72 | 180 | 3.0 | 20.0 | 0.00 | 0.01 | 0.00 | 51 | 1004.4 |
| 20260504201829 | 72 | 268 | 3.0 | 20.0 | 0.00 | 0.01 | 0.00 | 52 | 1004.7 |
| 20260504201329 | 72 | 225 | 5.0 | 20.0 | 0.00 | 0.01 | 0.00 | 51 | 1004.6 |